#timestamp,LO_Frequency,Hit,StdDev 
1512280815.7,286047001.2,N
1512280835.5,286046996.8,N
1512280855.4,286046998.2,N
1512280875.2,286047001.5,N
1512280895.0,286046997.2,N
1512280895.9,286046997.2,N
1512280915.8,286046995.6,N
1512280935.6,286046997.3,N
1512280955.4,286046996.0,N
1512280975.3,286046994.0,N
1512280995.1,286046996.2,N
1512280996.0,286046996.2,N
1512281015.8,286046999.1,N
1512281035.7,286046998.1,N
1512281055.5,286047002.6,N
1512281075.3,286046997.1,N
1512281095.2,286046999.4,N
1512281115.9,286046997.1,N
1512281135.7,286047000.7,N
1512281155.5,286047003.6,N
1512281175.4,286047007.1,N
1512281195.2,286047005.9,N
1512281215.0,286047000.2,N
1512281215.9,286047000.2,N
1512281235.8,286047003.5,N
1512281255.6,286047001.4,N
1512281275.4,286047004.2,N
1512281295.3,286047005.7,N
1512281315.1,286047004.2,N
1512281335.8,286047005.5,N
1512281355.7,286047005.6,N
1512281375.5,286047008.7,N
1512281395.3,286047008.7,N
1512281415.2,286047004.6,N
1512281435.9,286047007.0,N
1512281455.7,286047008.8,N
1512281475.6,286047005.4,N
1512281495.4,286047003.1,N
1512281515.2,286047004.2,N
1512281535.0,286046998.6,N
1512281535.9,286046998.6,N
1512281555.8,286046998.4,N
1512281575.6,286046997.1,N
1512281595.4,286047000.7,N
1512281615.3,286047000.5,N
1512281635.1,286046999.8,N
1512281655.8,286047001.7,N
1512281675.7,286047003.6,N
1512281695.5,286047004.9,N
1512281715.3,286047008.7,N
1512281735.2,286047013.5,Y
1512281755.9,286047010.0,P
1512281775.7,286047014.0,P
1512281795.6,286047012.8,N
1512281815.4,286047016.1,Y
1512281835.2,286047007.9,P
1512281855.1,286047007.8,P
1512281856.0,286047007.8,P
1512281875.8,286047009.1,Y
1512281895.6,286046997.4,P
1512281915.5,286047002.5,N
1512281935.3,286046996.5,N
1512281955.1,286046993.7,N
1512281975.9,286046993.5,N
1512281995.7,286046995.0,N
1512282015.5,286046996.2,N
1512282035.3,286046995.5,N
1512282055.2,286046994.9,N
1512282075.0,286046997.8,N
1512282075.9,286046997.8,N
1512282095.7,286046998.0,N
1512282115.6,286046993.7,N
1512282135.4,286046994.9,N
1512282155.2,286046998.4,N
1512282175.1,286047004.1,N
1512282176.0,286047004.1,N
1512282195.8,286047005.5,N
1512282215.6,286047001.4,N
1512282235.5,286047000.8,N
1512282255.3,286047000.6,N
1512282275.1,286047007.1,N
1512282295.9,286047012.2,N
1512282315.7,286047011.6,N
1512282335.5,286047018.0,Y
1512282355.4,286047019.8,P
1512282375.2,286047020.9,N
1512282395.0,286047024.4,N
1512282395.9,286047024.4,N
1512282415.7,286047022.5,N
1512282435.6,286047019.8,N
1512282455.4,286047017.1,N
1512282475.2,286047010.3,N
1512282495.1,286047008.6,N
1512282496.0,286047008.6,N
1512282515.8,286047010.0,N
1512282535.6,286047012.5,N
1512282555.5,286047017.1,N
1512282575.3,286047016.5,N
1512282595.1,286047020.0,N
1512282615.9,286047024.2,Y
1512282635.7,286047009.5,P
1512282655.5,286047010.0,P
1512282675.4,286047010.2,P
1512282695.2,286047009.9,Y
1512282715.0,286047000.2,P
1512282715.9,286047000.2,N
1512282735.8,286047003.9,N
1512282755.6,286047002.2,N
1512282775.4,286047002.7,N
1512282795.3,286047002.0,N
1512282815.1,286047005.2,N
1512282816.0,286047005.2,N
1512282835.8,286047004.4,N
1512282855.7,286047002.3,N
1512282875.5,286047000.1,N
1512282895.3,286047004.2,N
1512282915.1,286047000.4,N
1512282935.9,286046999.2,N
1512282955.7,286047000.5,N
1512282975.5,286047004.1,N
1512282995.4,286047002.5,N
1512283045.2,286047002.7,E
1512283055.2,286046998.1,N
1512283075.9,286046998.3,P
1512283095.7,286047000.6,P
1512283115.6,286046999.4,N
1512283135.4,286046995.3,Y
1512283155.2,286046999.5,P
1512283175.1,286046996.9,P
1512283176.0,286046996.9,N
1512283195.8,286046997.6,N
1512283215.6,286046996.9,N
1512283235.5,286047000.9,N
1512283255.3,286046998.8,N
1512283275.1,286046996.7,N
1512283295.9,286046997.8,N
1512283315.7,286046993.8,Y
1512283335.5,286046998.3,P
1512283355.4,286047004.2,P
1512283375.2,286047000.7,N
1512283395.0,286046996.1,N
1512283395.9,286046996.1,N
1512283415.7,286046992.3,N
1512283435.6,286046987.9,Y
1512283455.4,286046983.8,P
1512283475.3,286046982.1,N
1512283495.1,286046983.9,N
1512283496.0,286046983.9,N
1512283515.8,286046982.6,N
1512283535.7,286046980.0,Y
1512283555.5,286046990.6,P
1512283575.3,286046991.1,P
1512283595.1,286046990.1,P
1512283615.9,286046992.3,Y
1512283635.7,286047002.8,P
1512283655.6,286047000.9,N
1512283675.4,286046999.9,N
1512283695.2,286047001.9,N
1512283715.0,286047000.0,N
1512283715.9,286047000.0,N
1512283735.8,286047001.1,N
1512283755.6,286046995.0,N
1512283775.4,286046995.5,N
1512283795.3,286046992.5,N
1512283815.1,286046994.4,N
1512283835.8,286046990.2,N
1512283855.7,286046991.5,N
1512283875.5,286046989.2,N
1512283895.3,286046991.6,N
1512283915.2,286046988.8,N
1512283935.9,286046987.6,N
1512283955.7,286046985.3,N
1512283975.5,286046988.3,N
1512283995.4,286046985.9,N
1512284015.2,286046987.4,N
1512284035.0,286046986.0,N
1512284035.9,286046986.0,N
1512284055.8,286046987.4,N
1512284075.6,286046989.8,N
1512284095.4,286046992.6,N
1512284115.3,286046997.9,N
1512284135.1,286046996.0,N
1512284155.8,286046994.7,N
1512284175.7,286046994.6,N
1512284195.5,286046994.3,N
1512284215.3,286046992.8,N
1512284235.2,286046991.7,N
1512284255.9,286046992.2,N
1512284275.7,286046994.1,N
1512284295.6,286046994.5,N
1512284315.4,286046990.8,N
1512284335.2,286046993.5,N
1512284355.0,286046992.5,N
1512284356.0,286046992.5,N
1512284375.8,286046993.0,N
1512284395.6,286046991.5,N
